sat.trackr.live / text

‹ back to catalog

STARLINK-30611

NORAD 58108 · 2023-161M

PAYLOAD ACTIVE UNKNOWN

§ Identity

Operator
Country
US
Launch date
2023-10-21
Launch site
AFWTR
Launch vehicle
Mass (kg)
RCS (m²)

Purposes: comms

External: N2YO · Heavens-Above · Gunter

§ Orbital elements

Epoch: 2026-09-20T11:36:40.955904Z

Period
93.85 min
Inclination
53.1589°
Eccentricity
0.0001249
Mean motion
15.34388143 rev/d
Perigee alt
461.9 km
Apogee alt
463.6 km
Semi-major
6,840.9 km
B*
3.2256e-5
RAAN
323.6192°
Arg perigee
81.3068°
Mean anomaly
278.8076°
Rev number
16,448

§ Raw data

STARLINK-306111 58108U 23161M   26263.48380736  .00000713  00000+0  32256-4 0  99952 58108  53.1589 323.6192 0001249  81.3068 278.8076 15.34388143164484

JSON: /api/v1/satellites/58108 · /tle

For live sub-satellite position, see the globe view (requires WebGL).

§ Visibility from observer

Set your observer location to see the next 7 days of passes ≥ 10°. The values pass through the URL so the page stays shareable.

No JS? Fill the form by hand. The geolocation button needs JavaScript.